Location: Wien
(48.2082°N, 16.3738°E)
Time: 09:57:53
(UTC+02:00)

Transit 4A - Visible Passes

Search period start: 19 May 2025 00:00
Search period end: 29 May 2025 00:00
Orbit: 865 x 977 km, 66.8° (Epoch: 18 May)

Date Brightness Start Highest point End Pass type
(mag) Time Alt. Az. Time Alt. Az. Time Alt. Az.
19 May 10.8 01:24:33 10° NNW 01:28:27 17° NNE 01:32:17 10° ENE visible
19 May 9.1 03:10:39 10° NNW 03:16:28 44° NE 03:22:06 10° ESE visible
19 May 10.6 21:55:09 10° W 22:00:01 23° NNW 22:04:49 10° NNE visible
19 May 10.9 23:45:53 10° NNW 23:48:49 13° N 23:51:44 10° NNE visible
20 May 10.5 01:33:24 10° NNW 01:37:46 20° NNE 01:42:03 10° ENE visible
20 May 8.5 03:19:26 10° NNW 03:25:28 58° NE 03:31:17 10° SE visible
20 May 10.7 22:04:55 10° WNW 22:09:17 19° NNW 22:13:36 10° NNE visible
20 May 10.9 23:55:19 10° NNW 23:58:16 13° N 00:01:11 10° NNE visible
21 May 10.2 01:42:12 10° NNW 01:47:02 23° NNE 01:51:44 10° E visible
21 May 8.0 03:28:15 10° NNW 03:34:22 78° NE 03:40:16 10° SE visible
21 May 10.8 22:14:46 10° WNW 22:18:37 16° NNW 22:22:26 10° NNE visible
22 May 10.8 00:04:32 10° NNW 00:07:41 14° N 00:10:49 10° NE visible
22 May 9.8 01:50:58 10° NNW 01:56:14 29° NE 02:01:19 10° E visible
22 May 7.8 03:37:08 10° NW 03:43:12 78° WSW 03:49:04 10° SSE visible
22 May 10.8 22:24:36 10° NW 22:28:00 15° NNW 22:31:22 10° NNE visible
23 May 10.6 00:13:33 10° NNW 00:17:06 15° NNE 00:20:35 10° NE visible
23 May 9.4 01:59:44 10° NNW 02:05:20 36° NE 02:10:46 10° ESE visible
23 May 7.9 03:46:03 10° NW 03:51:57 56° WSW 03:57:40 10° SSE visible
23 May 10.8 22:34:22 10° NW 22:37:26 14° N 22:40:27 10° NNE visible
24 May 10.5 00:22:27 10° NNW 00:26:27 17° NNE 00:30:22 10° ENE visible
24 May 8.9 02:08:31 10° NNW 02:14:24 47° NE 02:20:04 10° ESE visible
24 May 8.3 03:55:06 10° NW 04:00:38 39° WSW 04:06:01 10° S visible
24 May 10.7 22:43:58 10° NNW 22:46:52 13° N 22:49:43 10° NNE visible
25 May 10.3 00:31:17 10° NNW 00:35:45 20° NNE 00:40:08 10° ENE visible
25 May 8.3 02:17:19 10° NNW 02:23:21 62° NE 02:29:11 10° SE visible
25 May 8.7 04:04:17 10° NW 04:09:14 27° WSW 04:14:04 10° SSW visible
25 May 10.6 22:53:20 10° NNW 22:56:18 13° N 22:59:13 10° NE visible
26 May 10.0 00:40:04 10° NNW 00:44:59 25° NNE 00:49:48 10° E visible
26 May 7.9 02:26:08 10° NW 02:32:14 84° NE 02:38:07 10° SE visible
26 May 9.1 04:13:44 10° WNW 04:17:46 19° WSW 04:21:44 10° SSW visible
26 May 10.5 23:02:30 10° NNW 23:05:43 14° N 23:08:54 10° NE visible
27 May 9.6 00:48:50 10° NNW 00:54:10 30° NE 00:59:21 10° E visible
27 May 7.7 02:35:02 10° NW 02:41:04 71° WSW 02:46:53 10° SSE visible
27 May 9.5 04:23:50 10° WNW 04:26:14 13° W 04:28:36 10° SW visible
27 May 10.6 21:22:46 10° NW 21:26:02 14° N 21:29:15 10° NNE visible
27 May 10.4 23:11:29 10° NNW 23:15:06 16° NNE 23:18:40 10° NE visible
28 May 9.1 00:57:36 10° NNW 01:03:16 38° NE 01:08:46 10° ESE visible
28 May 8.0 02:43:59 10° NW 02:49:47 51° WSW 02:54:24 15° S visible
28 May 10.6 21:32:30 10° NW 21:35:27 13° N 21:38:22 10° NNE visible
28 May 10.3 23:20:21 10° NNW 23:24:27 18° NNE 23:28:28 10° ENE visible
